CUA5978 ZSPD-ZBAD

Flight info

Callsign CUA5978
Flight time 1h 47m
Altitude 34100
Route PIKAS G330 PIMOL A593 DALIM W157 AVBOX
Aircraft B738/M-SDE2E3FGHIRWXY/LB1

Departure

Time 2026-05-06 08:55
Airport Shanghai Pudong International Airport (ZSPD)

Arrival

Time 2026-05-06 10:42
Airport Beijing Daxing International Airport (ZBAD)
Time Latitude Longitude Altitude Speed Heading
2026-05-06 08:30 31.15501 121.79681 21 ft 0 kts 252°
2026-05-06 08:45 31.15502 121.79686 21 ft 2 kts 252°
2026-05-06 08:45 31.15507 121.79703 21 ft 2 kts 252°
2026-05-06 08:46 31.15511 121.79720 21 ft 2 kts 258°
2026-05-06 08:46 31.15511 121.79737 21 ft 2 kts 283°
2026-05-06 08:46 31.15506 121.79753 21 ft 2 kts 303°
2026-05-06 08:46 31.15496 121.79767 21 ft 2 kts 323°
2026-05-06 08:47 31.15485 121.79774 21 ft 0 kts 339°
2026-05-06 08:47 31.15479 121.79776 21 ft 0 kts 342°
2026-05-06 08:49 31.15506 121.79765 21 ft 9 kts 339°
2026-05-06 08:49 31.15607 121.79726 21 ft 19 kts 341°
2026-05-06 08:49 31.15739 121.79675 21 ft 15 kts 341°
2026-05-06 08:50 31.15775 121.79601 21 ft 11 kts 259°
2026-05-06 08:50 31.15749 121.79501 21 ft 14 kts 252°
2026-05-06 08:50 31.15715 121.79382 21 ft 16 kts 251°
2026-05-06 08:50 31.15679 121.79252 21 ft 17 kts 252°
2026-05-06 08:51 31.15642 121.79119 21 ft 17 kts 252°
2026-05-06 08:51 31.15630 121.79028 21 ft 10 kts 291°
2026-05-06 08:51 31.15710 121.78976 21 ft 17 kts 341°
2026-05-06 08:51 31.15867 121.78917 21 ft 26 kts 341°
2026-05-06 08:52 31.16040 121.78851 21 ft 20 kts 342°
2026-05-06 08:52 31.16140 121.78808 21 ft 11 kts 315°
2026-05-06 08:52 31.16143 121.78730 21 ft 8 kts 253°
2026-05-06 08:52 31.16139 121.78717 21 ft 0 kts 252°
2026-05-06 08:53 31.16138 121.78713 21 ft 3 kts 252°
2026-05-06 08:53 31.16119 121.78646 21 ft 10 kts 251°
2026-05-06 08:53 31.16076 121.78618 21 ft 8 kts 170°
2026-05-06 08:53 31.16046 121.78628 21 ft 0 kts 161°
2026-05-06 08:54 31.16035 121.78632 21 ft 10 kts 161°
2026-05-06 08:54 31.15698 121.78760 21 ft 88 kts 161°
2026-05-06 08:54 31.14901 121.79062 22 ft 151 kts 161°
2026-05-06 08:55 31.13828 121.79458 504 ft 169 kts 161°
2026-05-06 08:55 31.12661 121.79918 1103 ft 180 kts 160°
2026-05-06 08:55 31.11454 121.80382 1645 ft 182 kts 161°
2026-05-06 08:55 31.10258 121.80831 2177 ft 185 kts 163°
2026-05-06 08:56 31.08952 121.81221 2395 ft 205 kts 165°
2026-05-06 08:56 31.07501 121.81664 2634 ft 224 kts 164°
2026-05-06 08:56 31.05942 121.82164 3093 ft 235 kts 165°
2026-05-06 08:56 31.04305 121.82661 3666 ft 252 kts 169°
2026-05-06 08:57 31.02534 121.82692 4362 ft 262 kts 189°
2026-05-06 08:57 31.00783 121.82114 5198 ft 267 kts 201°
2026-05-06 08:57 30.99204 121.80985 5994 ft 272 kts 224°
2026-05-06 08:57 30.98142 121.79158 6835 ft 276 kts 247°
2026-05-06 08:58 30.97542 121.77048 7667 ft 279 kts 253°
2026-05-06 08:58 30.96969 121.74904 8443 ft 282 kts 253°
2026-05-06 08:58 30.96414 121.72693 9205 ft 286 kts 258°
2026-05-06 08:58 30.96278 121.70422 9962 ft 287 kts 276°
2026-05-06 08:59 30.96647 121.68124 10502 ft 297 kts 284°
2026-05-06 08:59 30.97169 121.65721 10925 ft 312 kts 284°
2026-05-06 08:59 30.97705 121.63216 11312 ft 328 kts 284°
2026-05-06 08:59 30.98236 121.60567 11739 ft 343 kts 283°
2026-05-06 09:00 30.98759 121.57818 12084 ft 358 kts 283°
2026-05-06 09:00 30.99295 121.54928 12584 ft 368 kts 282°
2026-05-06 09:00 30.99826 121.52028 13236 ft 372 kts 282°
2026-05-06 09:00 31.00367 121.49066 14051 ft 374 kts 282°
2026-05-06 09:01 31.00903 121.46127 14741 ft 377 kts 282°
2026-05-06 09:01 31.01450 121.43139 15515 ft 379 kts 282°
2026-05-06 09:01 31.02003 121.40131 16238 ft 381 kts 283°
2026-05-06 09:01 31.02553 121.37139 16884 ft 384 kts 283°
2026-05-06 09:02 31.03110 121.34109 17574 ft 387 kts 282°
2026-05-06 09:02 31.03675 121.31027 18246 ft 389 kts 282°
2026-05-06 09:02 31.04241 121.27936 18976 ft 391 kts 282°
2026-05-06 09:02 31.04913 121.24897 19557 ft 393 kts 289°
2026-05-06 09:03 31.06040 121.21990 20217 ft 394 kts 299°
2026-05-06 09:03 31.07605 121.19387 20793 ft 399 kts 309°
2026-05-06 09:03 31.09598 121.17132 21415 ft 403 kts 319°
2026-05-06 09:03 31.11938 121.15321 22029 ft 408 kts 328°
2026-05-06 09:04 31.14545 121.13920 22620 ft 412 kts 335°
2026-05-06 09:04 31.17229 121.12809 23160 ft 416 kts 338°
2026-05-06 09:04 31.20041 121.11848 23647 ft 423 kts 343°
2026-05-06 09:04 31.22951 121.11301 24156 ft 430 kts 350°
2026-05-06 09:05 31.25969 121.11051 24666 ft 435 kts 353°
2026-05-06 09:05 31.28987 121.10934 25170 ft 438 kts 354°
2026-05-06 09:05 31.32081 121.10850 25621 ft 442 kts 355°
2026-05-06 09:05 31.35161 121.10790 26091 ft 446 kts 356°
2026-05-06 09:06 31.38256 121.10886 26569 ft 450 kts 359°
2026-05-06 09:06 31.41416 121.11062 26987 ft 453 kts 358°
2026-05-06 09:06 31.44554 121.11007 27360 ft 454 kts 351°
2026-05-06 09:06 31.47685 121.10414 27821 ft 452 kts 342°
2026-05-06 09:07 31.50629 121.09304 28243 ft 451 kts 335°
2026-05-06 09:07 31.53527 121.07850 28594 ft 453 kts 332°
2026-05-06 09:07 31.56353 121.06254 29269 ft 449 kts 330°
2026-05-06 09:07 31.59145 121.04623 29955 ft 445 kts 330°
2026-05-06 09:08 31.61887 121.03025 30619 ft 441 kts 331°
2026-05-06 09:08 31.64628 121.01457 31222 ft 439 kts 331°
2026-05-06 09:08 31.67403 120.99900 31744 ft 438 kts 332°
2026-05-06 09:08 31.70156 120.98382 32230 ft 437 kts 332°
2026-05-06 09:09 31.72912 120.96881 32717 ft 437 kts 332°
2026-05-06 09:09 31.75670 120.95391 33234 ft 435 kts 333°
2026-05-06 09:09 31.78396 120.93926 33850 ft 431 kts 333°
2026-05-06 09:09 31.81108 120.92470 34006 ft 435 kts 333°
2026-05-06 09:10 31.83861 120.90994 34005 ft 432 kts 333°
2026-05-06 09:10 31.89227 120.88088 34006 ft 414 kts 332°
2026-05-06 09:11 31.94356 120.85294 34005 ft 396 kts 332°
2026-05-06 09:11 31.99268 120.82622 34000 ft 378 kts 332°
2026-05-06 09:12 32.04022 120.80087 34004 ft 380 kts 333°
2026-05-06 09:12 32.08849 120.77338 33999 ft 392 kts 326°
2026-05-06 09:13 32.12981 120.73084 34000 ft 402 kts 308°
2026-05-06 09:13 32.16049 120.67471 33999 ft 415 kts 297°
2026-05-06 09:14 32.17784 120.60909 33998 ft 427 kts 281°
2026-05-06 09:14 32.18460 120.54028 33995 ft 422 kts 277°
2026-05-06 09:15 32.18961 120.47089 33994 ft 425 kts 276°
2026-05-06 09:15 32.19476 120.40163 33992 ft 424 kts 277°
2026-05-06 09:16 32.20011 120.33289 33993 ft 424 kts 277°
2026-05-06 09:16 32.20564 120.26375 33989 ft 424 kts 277°
2026-05-06 09:17 32.21122 120.19490 33988 ft 423 kts 277°
2026-05-06 09:17 32.21687 120.12573 33985 ft 424 kts 277°
2026-05-06 09:18 32.22245 120.05678 33978 ft 422 kts 277°
2026-05-06 09:18 32.22796 119.98816 33979 ft 422 kts 277°
2026-05-06 09:19 32.23347 119.91904 33981 ft 423 kts 277°
2026-05-06 09:19 32.23954 119.85020 33974 ft 421 kts 280°
2026-05-06 09:20 32.25670 119.78490 33970 ft 421 kts 297°
2026-05-06 09:20 32.29065 119.72869 33968 ft 423 kts 310°
2026-05-06 09:21 32.33450 119.68211 33967 ft 425 kts 320°
2026-05-06 09:21 32.38259 119.64181 33962 ft 426 kts 322°
2026-05-06 09:22 32.43137 119.60192 33962 ft 426 kts 322°
2026-05-06 09:22 32.47989 119.56145 33956 ft 426 kts 321°
2026-05-06 09:23 32.52777 119.52063 33956 ft 426 kts 321°
2026-05-06 09:23 32.57567 119.47937 33951 ft 425 kts 321°
2026-05-06 09:24 32.62363 119.43790 33956 ft 427 kts 321°
2026-05-06 09:24 32.67143 119.39647 33942 ft 426 kts 321°
2026-05-06 09:25 32.71923 119.35497 33945 ft 427 kts 321°
2026-05-06 09:25 32.76712 119.31333 33942 ft 428 kts 320°
2026-05-06 09:26 32.81529 119.27141 33940 ft 427 kts 320°
2026-05-06 09:26 32.86320 119.22965 33937 ft 428 kts 320°
2026-05-06 09:27 32.91100 119.18793 33931 ft 428 kts 320°
2026-05-06 09:27 32.95896 119.14609 33937 ft 427 kts 320°
2026-05-06 09:28 33.00717 119.10451 33924 ft 428 kts 320°
2026-05-06 09:28 33.05550 119.06296 33926 ft 431 kts 320°
2026-05-06 09:29 33.10398 119.02121 33924 ft 428 kts 320°
2026-05-06 09:29 33.15229 118.97948 33923 ft 427 kts 320°
2026-05-06 09:30 33.20032 118.93789 33923 ft 428 kts 320°
2026-05-06 09:30 33.24826 118.89616 33922 ft 427 kts 320°
2026-05-06 09:31 33.29628 118.85420 33918 ft 426 kts 320°
2026-05-06 09:31 33.34419 118.81253 33919 ft 427 kts 320°
2026-05-06 09:32 33.39212 118.77103 33918 ft 426 kts 320°
2026-05-06 09:32 33.44023 118.72938 33919 ft 424 kts 320°
2026-05-06 09:33 33.48785 118.68806 33919 ft 423 kts 319°
2026-05-06 09:33 33.53569 118.64656 33918 ft 423 kts 320°
2026-05-06 09:34 33.58308 118.60544 33917 ft 423 kts 320°
2026-05-06 09:34 33.63066 118.56411 33916 ft 423 kts 320°
2026-05-06 09:35 33.67849 118.52249 33921 ft 424 kts 320°
2026-05-06 09:35 33.72589 118.48118 33916 ft 422 kts 320°
2026-05-06 09:36 33.77328 118.43984 33915 ft 421 kts 320°
2026-05-06 09:36 33.82063 118.39846 33913 ft 421 kts 320°
2026-05-06 09:37 33.86810 118.35689 33913 ft 421 kts 319°
2026-05-06 09:37 33.91518 118.31564 33910 ft 420 kts 319°
2026-05-06 09:38 33.96239 118.27423 33910 ft 418 kts 319°
2026-05-06 09:38 34.00943 118.23306 33904 ft 418 kts 319°
2026-05-06 09:39 34.05660 118.19200 33909 ft 420 kts 319°
2026-05-06 09:39 34.10360 118.15102 33903 ft 420 kts 320°
2026-05-06 09:40 34.15094 118.10982 33904 ft 419 kts 319°
2026-05-06 09:40 34.22174 118.04807 33901 ft 419 kts 319°
2026-05-06 09:41 34.26990 118.00881 33897 ft 420 kts 325°
2026-05-06 09:41 34.32442 117.98038 33892 ft 434 kts 335°
2026-05-06 09:42 34.38242 117.95921 33894 ft 433 kts 338°
2026-05-06 09:42 34.44020 117.93950 33897 ft 432 kts 338°
2026-05-06 09:43 34.49864 117.91928 33892 ft 435 kts 338°
2026-05-06 09:43 34.55660 117.89890 33892 ft 436 kts 338°
2026-05-06 09:44 34.61484 117.87817 33888 ft 435 kts 338°
2026-05-06 09:44 34.67278 117.85741 33888 ft 434 kts 338°
2026-05-06 09:45 34.73043 117.83669 33891 ft 435 kts 338°
2026-05-06 09:45 34.78842 117.81580 33884 ft 434 kts 337°
2026-05-06 09:46 34.84654 117.79473 33886 ft 438 kts 337°
2026-05-06 09:46 34.90473 117.77345 33885 ft 434 kts 337°
2026-05-06 09:47 34.96238 117.75239 33891 ft 436 kts 337°
2026-05-06 09:47 35.02044 117.73109 33889 ft 437 kts 337°
2026-05-06 09:48 35.07868 117.70973 33896 ft 435 kts 337°
2026-05-06 09:48 35.13695 117.68835 33902 ft 438 kts 337°
2026-05-06 09:49 35.19534 117.66692 33905 ft 439 kts 337°
2026-05-06 09:49 35.25349 117.64556 33907 ft 435 kts 337°
2026-05-06 09:50 35.31150 117.62416 33908 ft 438 kts 337°
2026-05-06 09:50 35.36982 117.60265 33905 ft 439 kts 337°
2026-05-06 09:51 35.42821 117.58106 33899 ft 437 kts 337°
2026-05-06 09:51 35.48679 117.55936 33899 ft 439 kts 336°
2026-05-06 09:52 35.54509 117.53777 33897 ft 438 kts 336°
2026-05-06 09:52 35.60330 117.51620 33902 ft 438 kts 336°
2026-05-06 09:53 35.66151 117.49455 33901 ft 440 kts 336°
2026-05-06 09:53 35.71970 117.47292 33893 ft 437 kts 336°
2026-05-06 09:54 35.77836 117.45106 33891 ft 440 kts 336°
2026-05-06 09:54 35.83684 117.42921 33888 ft 437 kts 336°
2026-05-06 09:55 35.89504 117.40745 33889 ft 441 kts 336°
2026-05-06 09:55 35.95369 117.38551 33885 ft 439 kts 336°
2026-05-06 09:56 36.01195 117.36366 33881 ft 442 kts 336°
2026-05-06 09:56 36.07103 117.34177 33882 ft 439 kts 335°
2026-05-06 09:57 36.12948 117.32021 33881 ft 441 kts 335°
2026-05-06 09:57 36.18832 117.29845 33877 ft 441 kts 335°
2026-05-06 09:58 36.24675 117.27683 33869 ft 440 kts 335°
2026-05-06 09:58 36.30526 117.25512 33878 ft 441 kts 335°
2026-05-06 09:59 36.36415 117.23318 33892 ft 439 kts 335°
2026-05-06 09:59 36.42248 117.21099 33894 ft 438 kts 333°
2026-05-06 10:00 36.47855 117.18398 33894 ft 432 kts 329°
2026-05-06 10:00 36.53384 117.15437 33890 ft 434 kts 328°
2026-05-06 10:01 36.58876 117.12502 33876 ft 431 kts 328°
2026-05-06 10:01 36.64400 117.09579 33856 ft 434 kts 329°
2026-05-06 10:02 36.69976 117.06651 33845 ft 434 kts 329°
2026-05-06 10:02 36.75504 117.03760 33838 ft 429 kts 329°
2026-05-06 10:03 36.81004 117.00880 33832 ft 431 kts 328°
2026-05-06 10:03 36.86582 116.97948 33830 ft 434 kts 329°
2026-05-06 10:04 36.92104 116.95050 33829 ft 432 kts 328°
2026-05-06 10:04 36.97666 116.92121 33828 ft 435 kts 328°
2026-05-06 10:05 37.03218 116.89196 33824 ft 432 kts 328°
2026-05-06 10:05 37.08779 116.86259 33824 ft 435 kts 328°
2026-05-06 10:06 37.14329 116.83320 33824 ft 432 kts 328°
2026-05-06 10:06 37.19881 116.80385 33823 ft 433 kts 328°
2026-05-06 10:07 37.25554 116.77768 33824 ft 441 kts 333°
2026-05-06 10:07 37.31425 116.75566 33826 ft 441 kts 334°
2026-05-06 10:08 37.37334 116.73415 33825 ft 444 kts 335°
2026-05-06 10:08 37.43238 116.71240 33828 ft 444 kts 334°
2026-05-06 10:09 37.49182 116.69011 33834 ft 441 kts 334°
2026-05-06 10:09 37.55033 116.66803 33835 ft 442 kts 333°
2026-05-06 10:10 37.60959 116.64548 33832 ft 442 kts 333°
2026-05-06 10:10 37.66822 116.62315 33838 ft 442 kts 333°
2026-05-06 10:11 37.72695 116.60069 33846 ft 447 kts 333°
2026-05-06 10:11 37.78669 116.57776 33471 ft 448 kts 333°
2026-05-06 10:12 37.81628 116.56646 33203 ft 445 kts 333°
2026-05-06 10:12 37.84598 116.55509 32953 ft 444 kts 333°
2026-05-06 10:12 37.87536 116.54385 32694 ft 446 kts 333°
2026-05-06 10:12 37.90519 116.53242 32435 ft 445 kts 333°
2026-05-06 10:13 37.93440 116.52064 32183 ft 445 kts 331°
2026-05-06 10:13 37.96336 116.50645 31924 ft 441 kts 326°
2026-05-06 10:13 37.99032 116.48909 31673 ft 432 kts 321°
2026-05-06 10:13 38.01570 116.46909 31416 ft 424 kts 317°
2026-05-06 10:14 38.03978 116.44798 31159 ft 425 kts 315°
2026-05-06 10:14 38.06372 116.42604 30638 ft 424 kts 315°
2026-05-06 10:14 38.08747 116.40392 29833 ft 424 kts 315°
2026-05-06 10:14 38.11093 116.38200 29053 ft 424 kts 315°
2026-05-06 10:15 38.13451 116.36002 28443 ft 420 kts 316°
2026-05-06 10:15 38.15799 116.33823 27859 ft 416 kts 315°
2026-05-06 10:15 38.18153 116.31662 27263 ft 413 kts 316°
2026-05-06 10:15 38.20515 116.29665 26658 ft 415 kts 321°
2026-05-06 10:16 38.23165 116.28069 26031 ft 423 kts 332°
2026-05-06 10:16 38.26013 116.27144 25401 ft 432 kts 342°
2026-05-06 10:16 38.29036 116.26804 24741 ft 438 kts 351°
2026-05-06 10:16 38.32049 116.26883 24079 ft 441 kts 356°
2026-05-06 10:17 38.35125 116.27354 23402 ft 445 kts
2026-05-06 10:17 38.38143 116.28185 22725 ft 446 kts
2026-05-06 10:17 38.41153 116.29208 22040 ft 446 kts 10°
2026-05-06 10:17 38.44120 116.30294 21356 ft 445 kts 11°
2026-05-06 10:18 38.47068 116.31391 20669 ft 444 kts 11°
2026-05-06 10:18 38.50025 116.32488 19974 ft 443 kts 11°
2026-05-06 10:18 38.52994 116.33572 19270 ft 441 kts 11°
2026-05-06 10:18 38.55921 116.34628 18579 ft 439 kts 11°
2026-05-06 10:19 38.58827 116.35664 17887 ft 438 kts 11°
2026-05-06 10:19 38.61771 116.36758 17167 ft 438 kts 14°
2026-05-06 10:19 38.64597 116.38161 16448 ft 439 kts 21°
2026-05-06 10:19 38.67279 116.39981 15747 ft 439 kts 27°
2026-05-06 10:20 38.69848 116.42077 15046 ft 437 kts 31°
2026-05-06 10:20 38.72318 116.44286 14335 ft 435 kts 33°
2026-05-06 10:20 38.74755 116.46546 13632 ft 432 kts 33°
2026-05-06 10:20 38.77167 116.48804 12948 ft 428 kts 34°
2026-05-06 10:21 38.79551 116.51030 12547 ft 416 kts 33°
2026-05-06 10:21 38.81851 116.53167 12301 ft 401 kts 33°
2026-05-06 10:21 38.84057 116.55202 12069 ft 387 kts 33°
2026-05-06 10:21 38.86210 116.57176 11816 ft 376 kts 32°
2026-05-06 10:22 38.88342 116.59122 11574 ft 371 kts 32°
2026-05-06 10:22 38.90434 116.61025 11341 ft 368 kts 32°
2026-05-06 10:22 38.92505 116.62907 11095 ft 366 kts 32°
2026-05-06 10:22 38.94584 116.64796 10865 ft 364 kts 32°
2026-05-06 10:23 38.96642 116.66670 10615 ft 362 kts 32°
2026-05-06 10:23 38.98675 116.68524 10369 ft 358 kts 32°
2026-05-06 10:23 39.00709 116.70379 10122 ft 355 kts 31°
2026-05-06 10:23 39.02800 116.72003 9877 ft 348 kts 22°
2026-05-06 10:24 39.05030 116.72841 9640 ft 329 kts
2026-05-06 10:24 39.07261 116.72749 9404 ft 313 kts 350°
2026-05-06 10:24 39.09381 116.72395 9154 ft 303 kts 348°
2026-05-06 10:24 39.11463 116.72028 8899 ft 295 kts 349°
2026-05-06 10:25 39.13467 116.71695 8659 ft 287 kts 350°
2026-05-06 10:25 39.15425 116.71388 8419 ft 280 kts 350°
2026-05-06 10:25 39.17339 116.71095 8163 ft 273 kts 350°
2026-05-06 10:25 39.19204 116.70812 7923 ft 267 kts 351°
2026-05-06 10:26 39.21015 116.70538 7673 ft 261 kts 351°
2026-05-06 10:26 39.22803 116.70266 7420 ft 256 kts 351°
2026-05-06 10:26 39.24564 116.69997 7179 ft 254 kts 351°
2026-05-06 10:26 39.26334 116.69724 6933 ft 253 kts 351°
2026-05-06 10:27 39.28064 116.69462 6701 ft 252 kts 351°
2026-05-06 10:27 39.29788 116.69073 6462 ft 251 kts 342°
2026-05-06 10:27 39.31295 116.68020 6213 ft 250 kts 318°
2026-05-06 10:27 39.32299 116.66181 5962 ft 252 kts 296°
2026-05-06 10:28 39.32812 116.64030 5723 ft 256 kts 283°
2026-05-06 10:28 39.32829 116.61716 5472 ft 258 kts 264°
2026-05-06 10:28 39.32107 116.59604 5231 ft 261 kts 232°
2026-05-06 10:28 39.30640 116.58249 4988 ft 261 kts 203°
2026-05-06 10:29 39.28891 116.57774 4754 ft 259 kts 184°
2026-05-06 10:29 39.27092 116.57857 4509 ft 257 kts 173°
2026-05-06 10:29 39.25332 116.58144 4272 ft 254 kts 171°
2026-05-06 10:29 39.23572 116.58460 4032 ft 253 kts 171°
2026-05-06 10:30 39.21847 116.58751 3884 ft 251 kts 172°
2026-05-06 10:30 39.20120 116.59023 3888 ft 253 kts 172°
2026-05-06 10:30 39.18354 116.59292 3881 ft 256 kts 172°
2026-05-06 10:30 39.16579 116.59561 3880 ft 252 kts 172°
2026-05-06 10:31 39.14845 116.59655 3882 ft 254 kts 185°
2026-05-06 10:31 39.13205 116.58935 3878 ft 244 kts 219°
2026-05-06 10:31 39.12161 116.57307 3891 ft 234 kts 249°
2026-05-06 10:31 39.11687 116.55375 3887 ft 222 kts 264°
2026-05-06 10:32 39.11477 116.53476 3887 ft 207 kts 268°
2026-05-06 10:32 39.11323 116.51646 3886 ft 205 kts 269°
2026-05-06 10:32 39.11182 116.49815 3882 ft 205 kts 273°
2026-05-06 10:32 39.11363 116.48065 3878 ft 190 kts 300°
2026-05-06 10:33 39.12211 116.46904 3890 ft 176 kts 335°
2026-05-06 10:33 39.13327 116.46276 3887 ft 174 kts 342°
2026-05-06 10:33 39.14471 116.45790 3890 ft 168 kts 347°
2026-05-06 10:33 39.15572 116.45463 3890 ft 163 kts 351°
2026-05-06 10:34 39.16704 116.45207 3891 ft 164 kts 353°
2026-05-06 10:34 39.17825 116.44991 3891 ft 162 kts 354°
2026-05-06 10:34 39.18950 116.44793 3888 ft 163 kts 354°
2026-05-06 10:34 39.20081 116.44604 3888 ft 162 kts 355°
2026-05-06 10:35 39.21196 116.44423 3886 ft 161 kts 355°
2026-05-06 10:35 39.22312 116.44248 3891 ft 162 kts 355°
2026-05-06 10:35 39.23421 116.44074 3893 ft 161 kts 355°
2026-05-06 10:35 39.24549 116.43895 3889 ft 161 kts 355°
2026-05-06 10:36 39.25664 116.43720 3892 ft 162 kts 355°
2026-05-06 10:36 39.26757 116.43552 3888 ft 151 kts 355°
2026-05-06 10:36 39.27780 116.43391 3893 ft 149 kts 355°
2026-05-06 10:36 39.28811 116.43231 3910 ft 147 kts 355°
2026-05-06 10:37 39.29857 116.43068 3755 ft 156 kts 355°
2026-05-06 10:37 39.30919 116.42901 3453 ft 152 kts 355°
2026-05-06 10:37 39.31931 116.42739 3255 ft 141 kts 356°
2026-05-06 10:37 39.32912 116.42587 3087 ft 144 kts 356°
2026-05-06 10:38 39.33899 116.42431 2891 ft 142 kts 356°
2026-05-06 10:38 39.34891 116.42275 2698 ft 142 kts 357°
2026-05-06 10:38 39.35876 116.42122 2504 ft 143 kts 357°
2026-05-06 10:38 39.36859 116.41956 2319 ft 143 kts 357°
2026-05-06 10:39 39.37855 116.41798 2124 ft 143 kts 357°
2026-05-06 10:39 39.38841 116.41647 1930 ft 143 kts 357°
2026-05-06 10:39 39.39819 116.41495 1752 ft 143 kts 358°
2026-05-06 10:39 39.40803 116.41342 1563 ft 141 kts 358°
2026-05-06 10:40 39.41785 116.41183 1376 ft 142 kts 358°
2026-05-06 10:40 39.42773 116.41035 1191 ft 143 kts 358°
2026-05-06 10:40 39.43758 116.40877 1000 ft 143 kts 357°
2026-05-06 10:40 39.44746 116.40709 834 ft 142 kts 357°
2026-05-06 10:41 39.45731 116.40537 579 ft 143 kts 359°
2026-05-06 10:41 39.46700 116.40430 410 ft 140 kts 355°
2026-05-06 10:41 39.47666 116.40259 259 ft 139 kts 358°
2026-05-06 10:41 39.48623 116.40108 114 ft 137 kts 358°
2026-05-06 10:42 39.49477 116.39981 90 ft 93 kts 354°
2026-05-06 10:42 39.49879 116.39915 90 ft 30 kts 353°
2026-05-06 10:42 39.50052 116.39888 90 ft 21 kts 355°
2026-05-06 10:42 39.50170 116.39871 90 ft 11 kts 352°
2026-05-06 10:43 39.50212 116.39862 90 ft 0 kts 350°
2026-05-06 10:43 39.50198 116.39865 90 ft 7 kts 350°
2026-05-06 10:43 39.50149 116.39876 90 ft 0 kts 351°
2026-05-06 10:44 39.50343 116.39844 90 ft 28 kts 357°
2026-05-06 10:44 39.50500 116.39843 90 ft 21 kts
2026-05-06 10:44 39.50628 116.39890 90 ft 15 kts 22°
2026-05-06 10:44 39.50734 116.39941 90 ft 16 kts 19°
2026-05-06 10:45 39.50824 116.40002 90 ft 13 kts 54°
2026-05-06 10:45 39.50848 116.40125 90 ft 12 kts 83°
2026-05-06 10:45 39.50809 116.40210 90 ft 13 kts 172°
2026-05-06 10:45 39.50717 116.40229 90 ft 13 kts 158°
2026-05-06 10:46 39.50642 116.40301 90 ft 13 kts 143°
2026-05-06 10:46 39.50565 116.40376 90 ft 14 kts 143°
2026-05-06 10:46 39.50491 116.40452 90 ft 11 kts 136°
2026-05-06 10:46 39.50481 116.40547 90 ft 11 kts 82°
2026-05-06 10:47 39.50492 116.40655 90 ft 12 kts 83°
2026-05-06 10:47 39.50490 116.40748 90 ft 10 kts 123°
2026-05-06 10:47 39.50423 116.40781 90 ft 10 kts 173°
2026-05-06 10:47 39.50347 116.40793 90 ft 11 kts 173°
2026-05-06 10:48 39.50266 116.40805 90 ft 11 kts 175°
2026-05-06 10:48 39.50190 116.40821 90 ft 10 kts 151°
2026-05-06 10:48 39.50174 116.40905 90 ft 10 kts 85°
2026-05-06 10:48 39.50184 116.41004 90 ft 11 kts 82°
2026-05-06 10:49 39.50193 116.41110 90 ft 12 kts 83°
2026-05-06 10:49 39.50204 116.41224 90 ft 13 kts 83°
2026-05-06 10:49 39.50216 116.41345 90 ft 13 kts 83°
2026-05-06 10:49 39.50227 116.41466 90 ft 14 kts 83°
2026-05-06 10:50 39.50239 116.41595 90 ft 14 kts 83°
2026-05-06 10:50 39.50250 116.41715 90 ft 8 kts 83°
2026-05-06 10:50 39.50274 116.41781 90 ft 9 kts 36°
2026-05-06 10:50 39.50348 116.41785 90 ft 11 kts 354°
2026-05-06 10:51 39.50444 116.41771 90 ft 14 kts 354°
2026-05-06 10:51 39.50537 116.41795 90 ft 14 kts 23°
2026-05-06 10:51 39.50632 116.41847 90 ft 15 kts 24°
2026-05-06 10:51 39.50734 116.41903 90 ft 16 kts 23°
2026-05-06 10:52 39.50807 116.41967 90 ft 12 kts 71°
2026-05-06 10:52 39.50825 116.42070 90 ft 11 kts 55°
2026-05-06 10:52 39.50901 116.42087 90 ft 11 kts 354°
2026-05-06 10:52 39.50984 116.42074 90 ft 10 kts 352°
2026-05-06 10:53 39.51025 116.42009 90 ft 10 kts 270°
2026-05-06 10:53 39.51031 116.41927 90 ft 7 kts 309°
2026-05-06 10:53 39.51079 116.41901 90 ft 7 kts 352°
2026-05-06 10:53 39.51129 116.41887 90 ft 6 kts 334°
2026-05-06 10:54 39.51152 116.41833 90 ft 6 kts 286°
2026-05-06 10:54 39.51176 116.41796 90 ft 4 kts 323°
2026-05-06 10:54 39.51203 116.41770 90 ft 4 kts 324°
2026-05-06 10:54 39.51217 116.41757 90 ft 1 kts 324°
2026-05-06 10:55 39.51222 116.41753 90 ft 0 kts 325°
2026-05-06 10:55 39.51223 116.41752 90 ft 0 kts 325°